BEIDOU-3 IGSO-1 (C38)

Last updated on Jan. 19, 2020, 4:38 a.m. UTC

1 44204U 19023A   20018.53212303 -.00000226  00000-0  10000-3 0  9994
2 44204  55.2794  62.5828 0015154 194.3392 167.0825  1.00282618  2881
UTC
Height (km)
Latitude
Longitude
Inclination
Orbital Period
UTC large
Height (km)
Speed (km/s)
/
Latitude / Longitude
Inclination (degrees)
Orbital Period (minutes)
Azimuth
Elevation
Range (km)
Doppler Factor
iOS Compass Heading
iOS Angle

Next 30 passes for location: Hong Kong

Rise time Rise Azimuth (degrees) Set time Set Azimuth (degrees) Duration Max altitude (degrees)

No matching passes for this satellites